Starlink 11534

operational
NORAD ID: 62555 Int'l Des: 2025-006 Owner: SPXS Country: US Constellation: starlink
LEOCIRCULAR

关于 Starlink 11534

正在加载描述...

实时位置

正在加载3D地球...

即将过境

高度历史

Altitude vs Time

uPlot chart will show altitude changes over time

两行轨道根数

1 62555U 25006B 25352.16363471 .00201152 00000-0 15298-2 0 9992
2 62555 43.0003 271.0245 0001129 284.8044 75.2698 15.70896762 53780
Epoch: Dec 18, 2025 • Age: 9 hours

当前状态

高度 357.9 km
速度 7.70 km/s
星下点 35.62°N, 31.14°E
发射日期 Jan 10, 2025
运行时间 0.9 years
类型 internet

技术详情

分类 Payload
质量 960.00 kg
干质量 910.00 kg
总质量 960.00 kg
长度 0.30 m
直径 4.10 m
跨度 29.00 m
形状 Box + pan
制造商 SPXS
平台类型 Starlink V2MD
阶段状态 In Orbit
所有者/国家 SPXS/US

大型星座

Loading constellations...